Location: ???????????
(55.5758°N, 38.4970°E)
Time: 21:31:23
(UTC+00:00)

Cosmos 304 Rocket - Pass Details

Date: 15 November 2025
Orbit: 668 x 677 km, 74.0° (Epoch: 12 December)

Event Time Altitude Azimuth Distance (km) Brightness Sun altitude
Exits shadow 02:41:42 40° 259° (WSW) 1,001 4.1 -19.2°
Maximum altitude 02:41:52 40° 253° (WSW) 999 4.1 -19.2°
Drops below altitude 10° 02:46:18 10° 184° (S) 2,113 6.3 -18.6°
Sets 02:48:41 0° 177° (S) 3,023 7.2 -18.3°
